| time (UTC) | temp F | wind direction | speed MPH | gust MPH | rain 1hr in | rain 24hr in | rain mn in | humidity % | barometer mb |
| 20260506192526 | 59 | 117 | 0.0 | 0.0 | 0.02 | 0.09 | 0.09 | 94 | 1005.9 |
| 20260506192021 | 59 | 159 | 0.0 | 0.0 | 0.02 | 0.09 | 0.09 | 94 | 1005.9 |
| 20260506191520 | 59 | 145 | 0.0 | 0.0 | 0.03 | 0.09 | 0.09 | 94 | 1005.9 |
| 20260506191020 | 59 | 169 | 0.0 | 0.0 | 0.03 | 0.09 | 0.09 | 94 | 1005.9 |
| 20260506190520 | 59 | 159 | 0.0 | 0.0 | 0.02 | 0.08 | 0.08 | 94 | 1005.9 |
| 20260506190019 | 59 | 152 | 0.0 | 0.0 | 0.03 | 0.08 | 0.08 | 94 | 1006.0 |
| 20260506185518 | 59 | 201 | 0.0 | 0.0 | 0.03 | 0.08 | 0.08 | 94 | 1006.1 |
| 20260506185019 | 59 | 120 | 0.0 | 1.0 | 0.04 | 0.08 | 0.08 | 94 | 1006.2 |
| 20260506184517 | 59 | 188 | 0.0 | 1.0 | 0.04 | 0.08 | 0.08 | 94 | 1006.1 |
| 20260506184017 | 59 | 125 | 0.0 | 0.0 | 0.04 | 0.08 | 0.08 | 94 | 1006.4 |
| 20260506183517 | 59 | 166 | 0.0 | 0.0 | 0.05 | 0.08 | 0.08 | 94 | 1006.4 |
| 20260506183018 | 59 | 161 | 0.0 | 0.0 | 0.05 | 0.08 | 0.08 | 93 | 1006.6 |
| 20260506182516 | 59 | 155 | 0.0 | 0.0 | 0.05 | 0.07 | 0.07 | 93 | 1006.5 |
| 20260506182016 | 59 | 163 | 0.0 | 0.0 | 0.05 | 0.07 | 0.07 | 93 | 1006.5 |
| 20260506181516 | 59 | 210 | 0.0 | 0.0 | 0.04 | 0.06 | 0.06 | 93 | 1006.6 |
| 20260506181020 | 59 | 165 | 0.0 | 1.0 | 0.04 | 0.06 | 0.06 | 92 | 1006.4 |
| 20260506180516 | 60 | 165 | 0.0 | 1.0 | 0.04 | 0.06 | 0.06 | 92 | 1006.2 |
| 20260506180014 | 60 | 144 | 0.0 | 0.0 | 0.04 | 0.05 | 0.05 | 92 | 1006.4 |
| 20260506175513 | 60 | 183 | 0.0 | 0.0 | 0.05 | 0.05 | 0.05 | 92 | 1006.3 |
| 20260506175013 | 60 | 146 | 0.0 | 0.0 | 0.04 | 0.04 | 0.04 | 92 | 1006.3 |
| 20260506174512 | 60 | 181 | 0.0 | 0.0 | 0.04 | 0.04 | 0.04 | 91 | 1006.5 |
| 20260506174012 | 60 | 260 | 0.0 | 0.0 | 0.04 | 0.04 | 0.04 | 91 | 1006.7 |
| 20260506173512 | 60 | 173 | 0.0 | 0.0 | 0.03 | 0.03 | 0.03 | 91 | 1006.8 |
| 20260506173012 | 60 | 142 | 0.0 | 0.0 | 0.03 | 0.03 | 0.03 | 90 | 1007.0 |
| 20260506172510 | 60 | 188 | 0.0 | 0.0 | 0.02 | 0.02 | 0.02 | 90 | 1007.2 |
| 20260506172008 | 60 | 148 | 0.0 | 0.0 | 0.02 | 0.02 | 0.02 | 89 | 1007.3 |
| 20260506171510 | 61 | 176 | 0.0 | 0.0 | 0.02 | 0.02 | 0.02 | 88 | 1007.5 |
| 20260506171008 | 61 | 210 | 0.0 | 0.0 | 0.02 | 0.02 | 0.02 | 87 | 1007.5 |
| 20260506170507 | 62 | 214 | 0.0 | 0.0 | 0.02 | 0.02 | 0.02 | 86 | 1007.6 |
| 20260506170008 | 62 | 150 | 0.0 | 0.0 | 0.01 | 0.01 | 0.01 | 85 | 1007.6 |
| 20260506165508 | 63 | 166 | 0.0 | 0.0 | 0.00 | 0.00 | 0.00 | 84 | 1007.7 |
| 20260506165007 | 63 | 169 | 0.0 | 0.0 | 0.00 | 0.00 | 0.00 | 82 | 1007.8 |
| 20260506164507 | 63 | 224 | 0.0 | 0.0 | 0.00 | 0.00 | 0.00 | 82 | 1007.6 |
| 20260506164008 | 64 | 169 | 0.0 | 5.0 | 0.00 | 0.00 | 0.00 | 80 | 1007.6 |
| 20260506163506 | 64 | 173 | 0.0 | 5.0 | 0.00 | 0.00 | 0.00 | 80 | 1007.4 |
| 20260506163014 | 64 | 162 | 0.0 | 0.0 | 0.00 | 0.00 | 0.00 | 79 | 1007.5 |
| 20260506162508 | 65 | 162 | 0.0 | 0.0 | 0.00 | 0.00 | 0.00 | 78 | 1007.3 |
| 20260506162006 | 65 | 221 | 0.0 | 0.0 | 0.00 | 0.00 | 0.00 | 78 | 1007.4 |
| 20260506161504 | 65 | 204 | 0.0 | 2.0 | 0.00 | 0.00 | 0.00 | 76 | 1007.3 |
| 20260506161006 | 65 | 228 | 0.0 | 2.0 | 0.00 | 0.00 | 0.00 | 76 | 1007.4 |
| 20260506160507 | 65 | 235 | 0.0 | 1.0 | 0.00 | 0.00 | 0.00 | 76 | 1007.6 |
| 20260506160010 | 66 | 224 | 0.0 | 1.0 | 0.00 | 0.00 | 0.00 | 75 | 1007.6 |
| 20260506155503 | 66 | 174 | 0.0 | 0.0 | 0.00 | 0.00 | 0.00 | 75 | 1007.7 |
| 20260506155005 | 66 | 211 | 0.0 | 1.0 | 0.00 | 0.00 | 0.00 | 75 | 1007.9 |
| 20260506154504 | 66 | 139 | 0.0 | 2.0 | 0.00 | 0.00 | 0.00 | 75 | 1007.9 |
| 20260506154008 | 66 | 201 | 0.0 | 7.0 | 0.00 | 0.00 | 0.00 | 75 | 1008.0 |
| 20260506153503 | 66 | 150 | 0.0 | 7.0 | 0.00 | 0.00 | 0.00 | 73 | 1007.9 |
| 20260506153003 | 67 | 226 | 0.0 | 0.0 | 0.00 | 0.00 | 0.00 | 74 | 1007.7 |
| 20260506152504 | 67 | 203 | 0.0 | 0.0 | 0.00 | 0.00 | 0.00 | 74 | 1007.7 |
| 20260506152002 | 67 | 132 | 0.0 | 6.0 | 0.00 | 0.00 | 0.00 | 73 | 1007.7 |
| 20260506151501 | 67 | 113 | 0.0 | 1.0 | 0.00 | 0.00 | 0.00 | 74 | 1007.7 |
| 20260506151001 | 67 | 161 | 0.0 | 0.0 | 0.00 | 0.00 | 0.00 | 73 | 1007.7 |
| 20260506150501 | 67 | 201 | 0.0 | 3.0 | 0.00 | 0.00 | 0.00 | 74 | 1007.8 |
| 20260506150201 | 67 | 205 | 0.0 | 3.0 | 0.00 | 0.00 | 0.00 | 73 | 1007.7 |
| 20260506145600 | 67 | 187 | 0.0 | 4.0 | 0.00 | 0.00 | 0.00 | 72 | 1007.8 |
| 20260506145100 | 67 | 111 | 0.0 | 4.0 | 0.00 | 0.00 | 0.00 | 73 | 1007.7 |
| 20260506144559 | 67 | 158 | 0.0 | 1.0 | 0.00 | 0.00 | 0.00 | 73 | 1007.7 |
| 20260506144058 | 67 | 177 | 0.0 | 4.0 | 0.00 | 0.00 | 0.00 | 74 | 1007.9 |
| 20260506143558 | 67 | 207 | 0.0 | 6.0 | 0.00 | 0.00 | 0.00 | 74 | 1007.9 |
| 20260506143106 | 67 | 155 | 0.0 | 0.0 | 0.00 | 0.00 | 0.00 | 74 | 1008.0 |
| 20260506142557 | 67 | 181 | 0.0 | 7.0 | 0.00 | 0.00 | 0.00 | 74 | 1008.0 |
| 20260506142057 | 67 | 152 | 0.0 | 7.0 | 0.00 | 0.00 | 0.00 | 75 | 1008.0 |
| 20260506141556 | 66 | 157 | 0.0 | 1.0 | 0.00 | 0.00 | 0.00 | 75 | 1008.0 |
| 20260506141057 | 66 | 152 | 0.0 | 0.0 | 0.00 | 0.00 | 0.00 | 76 | 1008.0 |
| 20260506140553 | 66 | 212 | 0.0 | 0.0 | 0.00 | 0.00 | 0.00 | 76 | 1008.1 |
| 20260506140057 | 65 | 176 | 0.0 | 0.0 | 0.00 | 0.00 | 0.00 | 77 | 1008.1 |
| 20260506135552 | 65 | 225 | 0.0 | 0.0 | 0.00 | 0.00 | 0.00 | 77 | 1008.2 |
| 20260506135051 | 65 | 217 | 0.0 | 1.0 | 0.00 | 0.00 | 0.00 | 78 | 1008.2 |
| 20260506134551 | 65 | 214 | 0.0 | 1.0 | 0.00 | 0.00 | 0.00 | 78 | 1007.9 |
| 20260506134052 | 65 | 145 | 0.0 | 1.0 | 0.00 | 0.00 | 0.00 | 78 | 1008.0 |
| 20260506133551 | 65 | 131 | 0.0 | 1.0 | 0.00 | 0.00 | 0.00 | 78 | 1007.8 |
| 20260506133049 | 65 | 103 | 0.0 | 0.0 | 0.00 | 0.00 | 0.00 | 79 | 1007.8 |
| 20260506132548 | 65 | 133 | 0.0 | 0.0 | 0.00 | 0.00 | 0.00 | 80 | 1008.0 |
| 20260506132046 | 64 | 215 | 0.0 | 0.0 | 0.00 | 0.00 | 0.00 | 81 | 1008.0 |
| 20260506131546 | 63 | 135 | 0.0 | 0.0 | 0.00 | 0.00 | 0.00 | 81 | 1008.2 |
| 20260506131044 | 63 | 132 | 0.0 | 0.0 | 0.00 | 0.00 | 0.00 | 82 | 1008.1 |
| 20260506130543 | 63 | 245 | 0.0 | 0.0 | 0.00 | 0.00 | 0.00 | 82 | 1008.1 |
| 20260506130042 | 63 | 236 | 0.0 | 0.0 | 0.00 | 0.00 | 0.00 | 83 | 1008.1 |
| 20260506125544 | 62 | 221 | 0.0 | 0.0 | 0.00 | 0.00 | 0.00 | 83 | 1008.2 |
| 20260506125045 | 62 | 225 | 0.0 | 0.0 | 0.00 | 0.00 | 0.00 | 84 | 1008.3 |
| 20260506124540 | 62 | 221 | 0.0 | 0.0 | 0.00 | 0.00 | 0.00 | 84 | 1008.4 |
| 20260506124039 | 62 | 217 | 0.0 | 0.0 | 0.00 | 0.00 | 0.00 | 83 | 1008.8 |
| 20260506123538 | 62 | 160 | 0.0 | 0.0 | 0.00 | 0.00 | 0.00 | 84 | 1008.7 |
| 20260506123038 | 61 | 86 | 0.0 | 0.0 | 0.00 | 0.00 | 0.00 | 84 | 1008.8 |
| 20260506122538 | 61 | 211 | 0.0 | 0.0 | 0.00 | 0.00 | 0.00 | 84 | 1008.8 |
| 20260506122038 | 61 | 152 | 0.0 | 0.0 | 0.00 | 0.00 | 0.00 | 84 | 1008.7 |
| 20260506121541 | 61 | 218 | 0.0 | 0.0 | 0.00 | 0.00 | 0.00 | 84 | 1008.6 |
| 20260506121036 | 61 | 198 | 0.0 | 0.0 | 0.00 | 0.00 | 0.00 | 85 | 1008.8 |
| 20260506120537 | 61 | 228 | 0.0 | 0.0 | 0.00 | 0.00 | 0.00 | 85 | 1008.6 |
| 20260506120037 | 60 | 194 | 0.0 | 0.0 | 0.00 | 0.00 | 0.00 | 86 | 1008.7 |
| 20260506115535 | 60 | 191 | 0.0 | 0.0 | 0.00 | 0.00 | 0.00 | 86 | 1008.6 |
| 20260506115035 | 60 | 146 | 0.0 | 0.0 | 0.00 | 0.00 | 0.00 | 86 | 1008.7 |
| 20260506114542 | 60 | 229 | 0.0 | 0.0 | 0.00 | 0.00 | 0.00 | 87 | 1008.6 |
| 20260506114035 | 60 | 217 | 0.0 | 0.0 | 0.00 | 0.00 | 0.00 | 87 | 1008.8 |
| 20260506113537 | 59 | 146 | 0.0 | 0.0 | 0.00 | 0.00 | 0.00 | 87 | 1008.7 |
| 20260506113035 | 59 | 143 | 0.0 | 0.0 | 0.00 | 0.00 | 0.00 | 87 | 1008.6 |
| 20260506112534 | 59 | 152 | 0.0 | 0.0 | 0.00 | 0.00 | 0.00 | 88 | 1008.6 |
| 20260506112037 | 59 | 191 | 0.0 | 0.0 | 0.00 | 0.00 | 0.00 | 88 | 1008.5 |
| 20260506111538 | 59 | 214 | 0.0 | 0.0 | 0.00 | 0.00 | 0.00 | 88 | 1008.8 |
| 20260506111034 | 59 | 169 | 0.0 | 0.0 | 0.00 | 0.00 | 0.00 | 88 | 1008.9 |
| 20260506110534 | 58 | 129 | 0.0 | 0.0 | 0.00 | 0.00 | 0.00 | 89 | 1009.0 |
| 20260506110034 | 58 | 203 | 0.0 | 4.0 | 0.00 | 0.00 | 0.00 | 89 | 1009.0 |
| 20260506105533 | 58 | 238 | 0.0 | 4.0 | 0.00 | 0.00 | 0.00 | 89 | 1008.9 |
| 20260506105032 | 58 | 215 | 0.0 | 0.0 | 0.00 | 0.00 | 0.00 | 89 | 1008.8 |
| 20260506104533 | 58 | 150 | 0.0 | 0.0 | 0.00 | 0.00 | 0.00 | 89 | 1008.7 |
| 20260506104032 | 57 | 204 | 0.0 | 0.0 | 0.00 | 0.00 | 0.00 | 89 | 1008.9 |
| 20260506103532 | 57 | 219 | 0.0 | 0.0 | 0.00 | 0.00 | 0.00 | 89 | 1008.9 |
| 20260506103032 | 57 | 156 | 0.0 | 0.0 | 0.00 | 0.00 | 0.00 | 89 | 1008.7 |
| 20260506102531 | 57 | 203 | 0.0 | 0.0 | 0.00 | 0.00 | 0.00 | 89 | 1008.7 |
| 20260506102031 | 57 | 222 | 0.0 | 0.0 | 0.00 | 0.00 | 0.00 | 90 | 1008.6 |
| 20260506101534 | 57 | 141 | 0.0 | 0.0 | 0.00 | 0.00 | 0.00 | 89 | 1008.7 |
| 20260506101029 | 57 | 158 | 0.0 | 0.0 | 0.00 | 0.00 | 0.00 | 89 | 1008.6 |
| 20260506100532 | 57 | 145 | 0.0 | 0.0 | 0.00 | 0.00 | 0.00 | 89 | 1008.6 |
| 20260506100030 | 57 | 205 | 0.0 | 0.0 | 0.00 | 0.00 | 0.00 | 89 | 1008.6 |
| 20260506095529 | 57 | 145 | 0.0 | 0.0 | 0.00 | 0.00 | 0.00 | 89 | 1008.6 |
| 20260506095029 | 57 | 162 | 0.0 | 0.0 | 0.00 | 0.00 | 0.00 | 89 | 1008.6 |
| 20260506094529 | 57 | 204 | 0.0 | 0.0 | 0.00 | 0.00 | 0.00 | 88 | 1008.5 |
| 20260506094027 | 57 | 169 | 0.0 | 1.0 | 0.00 | 0.00 | 0.00 | 88 | 1008.5 |
| 20260506093527 | 57 | 180 | 0.0 | 1.0 | 0.00 | 0.00 | 0.00 | 88 | 1008.6 |
| 20260506093030 | 57 | 193 | 0.0 | 0.0 | 0.00 | 0.00 | 0.00 | 88 | 1008.5 |
| 20260506092527 | 58 | 146 | 0.0 | 0.0 | 0.00 | 0.00 | 0.00 | 88 | 1008.6 |
| 20260506092026 | 58 | 204 | 0.0 | 0.0 | 0.00 | 0.00 | 0.00 | 88 | 1008.6 |
| 20260506091526 | 58 | 160 | 0.0 | 0.0 | 0.00 | 0.00 | 0.00 | 88 | 1008.6 |
| 20260506091024 | 58 | 160 | 0.0 | 0.0 | 0.00 | 0.00 | 0.00 | 87 | 1008.7 |
| 20260506090524 | 58 | 155 | 0.0 | 0.0 | 0.00 | 0.00 | 0.00 | 87 | 1008.6 |
| 20260506090024 | 58 | 214 | 0.0 | 0.0 | 0.00 | 0.00 | 0.00 | 87 | 1008.7 |
| 20260506085524 | 58 | 139 | 0.0 | 0.0 | 0.00 | 0.00 | 0.00 | 87 | 1008.7 |
| 20260506085023 | 58 | 152 | 0.0 | 0.0 | 0.00 | 0.00 | 0.00 | 87 | 1008.7 |
| 20260506084523 | 58 | 212 | 0.0 | 0.0 | 0.00 | 0.00 | 0.00 | 87 | 1008.7 |
| 20260506084023 | 58 | 212 | 0.0 | 0.0 | 0.00 | 0.00 | 0.00 | 86 | 1008.7 |
| 20260506083522 | 58 | 158 | 0.0 | 0.0 | 0.00 | 0.00 | 0.00 | 86 | 1008.8 |
| 20260506083021 | 58 | 167 | 0.0 | 0.0 | 0.00 | 0.00 | 0.00 | 86 | 1008.7 |
| 20260506082521 | 58 | 214 | 0.0 | 0.0 | 0.00 | 0.00 | 0.00 | 86 | 1008.8 |
| 20260506082021 | 58 | 228 | 0.0 | 0.0 | 0.00 | 0.00 | 0.00 | 86 | 1008.7 |
| 20260506081520 | 58 | 153 | 0.0 | 3.0 | 0.00 | 0.00 | 0.00 | 86 | 1008.6 |
| 20260506081020 | 58 | 108 | 0.0 | 3.0 | 0.00 | 0.00 | 0.00 | 86 | 1008.6 |
| 20260506080520 | 58 | 163 | 0.0 | 0.0 | 0.00 | 0.00 | 0.00 | 86 | 1008.6 |
| 20260506073519 | 59 | 234 | 0.0 | 0.0 | 0.00 | 0.00 | 0.00 | 85 | 1008.7 |
| 20260506073018 | 59 | 150 | 0.0 | 0.0 | 0.00 | 0.00 | 0.00 | 85 | 1008.6 |
| 20260506072517 | 59 | 194 | 0.0 | 1.0 | 0.00 | 0.00 | 0.00 | 84 | 1008.7 |
| 20260506072017 | 59 | 207 | 0.0 | 5.0 | 0.00 | 0.00 | 0.00 | 84 | 1008.7 |
| 20260506071515 | 59 | 201 | 0.0 | 0.0 | 0.00 | 0.00 | 0.00 | 84 | 1008.8 |
| 20260506071017 | 59 | 205 | 0.0 | 0.0 | 0.00 | 0.00 | 0.00 | 84 | 1008.7 |
| 20260506070514 | 59 | 203 | 0.0 | 0.0 | 0.00 | 0.00 | 0.00 | 84 | 1008.8 |
| 20260506062516 | 60 | 101 | 0.0 | 2.0 | 0.00 | 0.00 | 0.00 | 82 | 1008.5 |
| 20260506062011 | 60 | 176 | 0.0 | 0.0 | 0.00 | 0.00 | 0.00 | 82 | 1008.5 |
| 20260506061515 | 60 | 160 | 0.0 | 0.0 | 0.00 | 0.00 | 0.00 | 82 | 1008.5 |
| 20260506061009 | 60 | 197 | 0.0 | 2.0 | 0.00 | 0.00 | 0.00 | 81 | 1008.6 |
| 20260506060509 | 60 | 160 | 0.0 | 4.0 | 0.00 | 0.00 | 0.00 | 81 | 1008.5 |
| 20260506051100 | 61 | 211 | 0.0 | 7.0 | 0.00 | 0.00 | 0.00 | 79 | 1008.9 |
| 20260506050600 | 61 | 193 | 0.0 | 7.0 | 0.00 | 0.00 | 0.00 | 79 | 1008.8 |
| 20260506045058 | 62 | 165 | 0.0 | 4.0 | 0.00 | 0.00 | 0.00 | 78 | 1008.9 |
| 20260506044558 | 62 | 183 | 0.0 | 0.0 | 0.00 | 0.00 | 0.00 | 78 | 1008.9 |
| 20260506044056 | 62 | 222 | 0.0 | 3.0 | 0.00 | 0.00 | 0.00 | 77 | 1009.0 |
| 20260506043556 | 62 | 207 | 0.0 | 9.0 | 0.00 | 0.00 | 0.00 | 77 | 1008.9 |
| 20260506043056 | 62 | 203 | 0.0 | 9.0 | 0.00 | 0.00 | 0.00 | 77 | 1008.9 |
| 20260506042556 | 62 | 138 | 0.0 | 0.0 | 0.00 | 0.00 | 0.00 | 76 | 1008.9 |
| 20260506042055 | 63 | 191 | 0.0 | 0.0 | 0.00 | 0.00 | 0.00 | 76 | 1008.9 |
| 20260506041556 | 63 | 98 | 0.0 | 5.0 | 0.00 | 0.00 | 0.00 | 75 | 1008.9 |
| 20260506041153 | 63 | 232 | 0.0 | 5.0 | 0.00 | 0.00 | 0.00 | 75 | 1008.9 |
| 20260506040552 | 63 | 117 | 0.0 | 0.0 | 0.00 | 0.00 | 0.00 | 74 | 1008.8 |
| 20260506040100 | 63 | 165 | 0.0 | 4.0 | 0.00 | 0.00 | 0.00 | 74 | 1008.8 |
| 20260506035551 | 63 | 139 | 0.0 | 4.0 | 0.00 | 0.00 | 0.00 | 74 | 1008.9 |
| 20260506035051 | 63 | 184 | 0.0 | 4.0 | 0.00 | 0.00 | 0.00 | 73 | 1008.8 |
| 20260506034605 | 63 | 163 | 0.0 | 3.0 | 0.00 | 0.00 | 0.00 | 73 | 1008.9 |
| 20260506034051 | 63 | 217 | 0.0 | 3.0 | 0.00 | 0.00 | 0.00 | 72 | 1008.8 |
| 20260506033550 | 63 | 191 | 0.0 | 7.0 | 0.00 | 0.00 | 0.00 | 72 | 1008.9 |
| 20260506033051 | 63 | 228 | 0.0 | 7.0 | 0.00 | 0.00 | 0.00 | 72 | 1008.9 |
| 20260506032551 | 63 | 211 | 0.0 | 2.0 | 0.00 | 0.00 | 0.00 | 72 | 1008.8 |
| 20260506032053 | 63 | 157 | 0.0 | 2.0 | 0.00 | 0.00 | 0.00 | 72 | 1008.8 |
| 20260506031559 | 63 | 79 | 0.0 | 3.0 | 0.00 | 0.00 | 0.00 | 72 | 1008.8 |
| 20260506031054 | 63 | 203 | 0.0 | 5.0 | 0.00 | 0.00 | 0.00 | 71 | 1008.8 |
| 20260506030549 | 63 | 139 | 0.0 | 5.0 | 0.00 | 0.00 | 0.00 | 71 | 1008.8 |
| 20260506030049 | 63 | 200 | 0.0 | 2.0 | 0.00 | 0.00 | 0.00 | 71 | 1008.7 |
| 20260506025549 | 63 | 210 | 0.0 | 7.0 | 0.00 | 0.00 | 0.00 | 71 | 1008.7 |
| 20260506025049 | 63 | 218 | 0.0 | 7.0 | 0.00 | 0.00 | 0.00 | 71 | 1008.7 |
| 20260506024551 | 63 | 218 | 0.0 | 4.0 | 0.00 | 0.00 | 0.00 | 71 | 1008.6 |
| 20260506024049 | 63 | 205 | 0.0 | 6.0 | 0.00 | 0.00 | 0.00 | 71 | 1008.7 |
| 20260506023549 | 63 | 155 | 0.0 | 6.0 | 0.00 | 0.00 | 0.00 | 71 | 1008.7 |
| 20260506023048 | 63 | 208 | 0.0 | 7.0 | 0.00 | 0.00 | 0.00 | 71 | 1008.6 |
| 20260506022548 | 63 | 200 | 0.0 | 7.0 | 0.00 | 0.00 | 0.00 | 71 | 1008.7 |
| 20260506022048 | 63 | 135 | 0.0 | 4.0 | 0.00 | 0.00 | 0.00 | 70 | 1008.6 |
| 20260506021647 | 63 | 224 | 0.0 | 2.0 | 0.00 | 0.00 | 0.00 | 70 | 1008.7 |
| 20260506021047 | 63 | 166 | 0.0 | 2.0 | 0.00 | 0.00 | 0.00 | 70 | 1008.7 |
| 20260506020546 | 63 | 162 | 0.0 | 0.0 | 0.00 | 0.00 | 0.00 | 70 | 1008.7 |
| 20260506020046 | 63 | 221 | 0.0 | 0.0 | 0.00 | 0.00 | 0.00 | 70 | 1008.7 |
| 20260506015548 | 63 | 216 | 0.0 | 0.0 | 0.00 | 0.00 | 0.00 | 70 | 1008.6 |
| 20260506015047 | 63 | 163 | 0.0 | 0.0 | 0.00 | 0.00 | 0.00 | 69 | 1008.7 |
| 20260506014546 | 64 | 162 | 0.0 | 0.0 | 0.00 | 0.00 | 0.00 | 69 | 1008.6 |
| 20260506014048 | 64 | 148 | 0.0 | 2.0 | 0.00 | 0.00 | 0.00 | 69 | 1008.5 |
| 20260506013546 | 64 | 210 | 0.0 | 3.0 | 0.00 | 0.00 | 0.00 | 68 | 1008.5 |
| 20260506013047 | 64 | 148 | 0.0 | 3.0 | 0.00 | 0.00 | 0.00 | 68 | 1008.3 |
| 20260506012545 | 64 | 198 | 0.0 | 6.0 | 0.00 | 0.00 | 0.00 | 68 | 1008.3 |
| 20260506012046 | 64 | 166 | 0.0 | 6.0 | 0.00 | 0.00 | 0.00 | 67 | 1008.3 |
| 20260506011544 | 64 | 250 | 0.0 | 5.0 | 0.00 | 0.00 | 0.00 | 67 | 1008.3 |
| 20260506011044 | 64 | 188 | 0.0 | 5.0 | 0.00 | 0.00 | 0.00 | 67 | 1008.1 |
| 20260506010544 | 64 | 159 | 0.0 | 5.0 | 0.00 | 0.00 | 0.00 | 67 | 1008.1 |
| 20260506010045 | 64 | 142 | 0.0 | 4.0 | 0.00 | 0.00 | 0.00 | 66 | 1008.0 |
| 20260506005545 | 65 | 150 | 0.0 | 3.0 | 0.00 | 0.00 | 0.00 | 66 | 1007.9 |
| 20260506005044 | 65 | 210 | 0.0 | 3.0 | 0.00 | 0.00 | 0.00 | 66 | 1007.9 |
| 20260506004548 | 65 | 134 | 0.0 | 3.0 | 0.00 | 0.00 | 0.00 | 66 | 1007.9 |
| 20260506004044 | 65 | 151 | 0.0 | 2.0 | 0.00 | 0.00 | 0.00 | 66 | 1007.8 |
| 20260506003544 | 65 | 210 | 0.0 | 2.0 | 0.00 | 0.00 | 0.00 | 65 | 1007.7 |
| 20260506003044 | 65 | 143 | 0.0 | 0.0 | 0.00 | 0.00 | 0.00 | 65 | 1007.6 |
| 20260506002542 | 65 | 198 | 0.0 | 4.0 | 0.00 | 0.00 | 0.00 | 65 | 1007.4 |
| 20260506002043 | 66 | 266 | 0.0 | 4.0 | 0.00 | 0.00 | 0.00 | 64 | 1007.3 |
| 20260506001542 | 66 | 135 | 0.0 | 5.0 | 0.00 | 0.00 | 0.00 | 64 | 1007.2 |
| 20260506001042 | 66 | 241 | 0.0 | 8.0 | 0.00 | 0.00 | 0.00 | 64 | 1007.2 |
| 20260506000544 | 66 | 151 | 0.0 | 9.0 | 0.00 | 0.00 | 0.00 | 64 | 1007.1 |
| 20260506000042 | 66 | 163 | 0.0 | 10.0 | 0.00 | 0.00 | 0.00 | 64 | 1007.0 |
| 20260505235542 | 66 | 222 | 0.0 | 10.0 | 0.00 | 0.00 | 0.00 | 64 | 1007.1 |
| 20260505235042 | 67 | 156 | 0.0 | 2.0 | 0.00 | 0.00 | 0.00 | 64 | 1007.0 |
| 20260505234548 | 67 | 169 | 0.0 | 5.0 | 0.00 | 0.00 | 0.00 | 63 | 1006.9 |
| 20260505234042 | 67 | 139 | 0.0 | 0.0 | 0.00 | 0.00 | 0.00 | 63 | 1007.0 |
| 20260505233540 | 67 | 217 | 0.0 | 6.0 | 0.00 | 0.00 | 0.00 | 63 | 1006.9 |
| 20260505233042 | 68 | 219 | 0.0 | 6.0 | 0.00 | 0.00 | 0.00 | 62 | 1006.8 |
| 20260505232540 | 68 | 200 | 0.0 | 6.0 | 0.00 | 0.00 | 0.00 | 62 | 1006.6 |
| 20260505232041 | 68 | 198 | 0.0 | 6.0 | 0.00 | 0.00 | 0.00 | 62 | 1006.7 |
| 20260505231547 | 68 | 167 | 0.0 | 2.0 | 0.00 | 0.00 | 0.00 | 62 | 1006.6 |
| 20260505231039 | 69 | 174 | 0.0 | 5.0 | 0.00 | 0.00 | 0.00 | 61 | 1006.6 |
| 20260505230538 | 69 | 191 | 0.0 | 5.0 | 0.00 | 0.00 | 0.00 | 61 | 1006.5 |
| 20260505230038 | 69 | 217 | 0.0 | 5.0 | 0.00 | 0.00 | 0.00 | 60 | 1006.4 |
| 20260505225538 | 69 | 197 | 0.0 | 7.0 | 0.00 | 0.00 | 0.00 | 60 | 1006.4 |
| 20260505225038 | 69 | 138 | 0.0 | 16.0 | 0.00 | 0.00 | 0.00 | 60 | 1006.3 |
| 20260505224537 | 70 | 135 | 1.0 | 16.0 | 0.00 | 0.00 | 0.00 | 59 | 1006.1 |
| 20260505224036 | 70 | 229 | 0.0 | 9.0 | 0.00 | 0.00 | 0.00 | 59 | 1006.0 |
| 20260505223536 | 71 | 197 | 0.0 | 10.0 | 0.00 | 0.00 | 0.00 | 58 | 1005.9 |
| 20260505223044 | 71 | 228 | 0.0 | 9.0 | 0.00 | 0.00 | 0.00 | 58 | 1005.9 |
| 20260505222536 | 71 | 195 | 1.0 | 9.0 | 0.00 | 0.00 | 0.00 | 57 | 1006.0 |
| 20260505222036 | 72 | 164 | 0.0 | 7.0 | 0.00 | 0.00 | 0.00 | 56 | 1006.1 |
| 20260505221536 | 72 | 208 | 0.0 | 7.0 | 0.00 | 0.00 | 0.00 | 57 | 1006.3 |
| 20260505221034 | 72 | 189 | 0.0 | 8.0 | 0.00 | 0.00 | 0.00 | 56 | 1006.3 |
| 20260505220537 | 73 | 218 | 0.0 | 8.0 | 0.00 | 0.00 | 0.00 | 56 | 1006.3 |
| 20260505220040 | 73 | 205 | 0.0 | 6.0 | 0.00 | 0.00 | 0.00 | 55 | 1006.4 |
| 20260505215534 | 73 | 153 | 0.0 | 12.0 | 0.00 | 0.00 | 0.00 | 55 | 1006.2 |
| 20260505215034 | 73 | 180 | 0.0 | 12.0 | 0.00 | 0.00 | 0.00 | 54 | 1006.2 |
| 20260505214541 | 73 | 221 | 0.0 | 8.0 | 0.00 | 0.00 | 0.00 | 55 | 1006.2 |
| 20260505214034 | 73 | 179 | 1.0 | 8.0 | 0.00 | 0.00 | 0.00 | 55 | 1006.1 |
| 20260505213533 | 73 | 156 | 0.0 | 2.0 | 0.00 | 0.00 | 0.00 | 55 | 1006.1 |
| 20260505213035 | 73 | 193 | 0.0 | 5.0 | 0.00 | 0.00 | 0.00 | 55 | 1006.2 |
| 20260505212534 | 73 | 247 | 0.0 | 5.0 | 0.00 | 0.00 | 0.00 | 54 | 1006.1 |
| 20260505212033 | 73 | 171 | 0.0 | 9.0 | 0.00 | 0.00 | 0.00 | 55 | 1006.1 |
| 20260505211532 | 74 | 198 | 1.0 | 11.0 | 0.00 | 0.00 | 0.00 | 54 | 1006.2 |
| 20260505211033 | 74 | 183 | 0.0 | 8.0 | 0.00 | 0.00 | 0.00 | 53 | 1006.2 |
| 20260505210531 | 75 | 191 | 0.0 | 7.0 | 0.00 | 0.00 | 0.00 | 53 | 1006.3 |
| 20260505210032 | 75 | 155 | 0.0 | 7.0 | 0.00 | 0.00 | 0.00 | 52 | 1006.1 |
| 20260505205533 | 75 | 146 | 0.0 | 9.0 | 0.00 | 0.00 | 0.00 | 53 | 1006.1 |
| 20260505205032 | 75 | 162 | 0.0 | 9.0 | 0.00 | 0.00 | 0.00 | 52 | 1006.1 |
| 20260505204535 | 76 | 172 | 1.0 | 13.0 | 0.00 | 0.00 | 0.00 | 51 | 1006.1 |
| 20260505204029 | 76 | 162 | 0.0 | 5.0 | 0.00 | 0.00 | 0.00 | 51 | 1005.9 |
| 20260505203630 | 76 | 155 | 0.0 | 1.0 | 0.00 | 0.00 | 0.00 | 52 | 1005.9 |
| 20260505203032 | 76 | 238 | 0.0 | 7.0 | 0.00 | 0.00 | 0.00 | 52 | 1005.9 |
| 20260505202529 | 76 | 201 | 0.0 | 7.0 | 0.00 | 0.00 | 0.00 | 51 | 1006.0 |
| 20260505202029 | 76 | 201 | 0.0 | 8.0 | 0.00 | 0.00 | 0.00 | 52 | 1006.0 |
| 20260505201527 | 77 | 127 | 0.0 | 8.0 | 0.00 | 0.00 | 0.00 | 51 | 1006.2 |
| 20260505201027 | 76 | 242 | 0.0 | 11.0 | 0.00 | 0.00 | 0.00 | 52 | 1006.2 |
| 20260505200527 | 76 | 85 | 0.0 | 11.0 | 0.00 | 0.00 | 0.00 | 51 | 1006.1 |
| 20260505200038 | 76 | 198 | 0.0 | 14.0 | 0.00 | 0.00 | 0.00 | 51 | 1006.3 |
| 20260505195530 | 76 | 246 | 0.0 | 14.0 | 0.00 | 0.00 | 0.00 | 51 | 1006.3 |
| 20260505195026 | 77 | 152 | 0.0 | 5.0 | 0.00 | 0.00 | 0.00 | 51 | 1006.2 |
| 20260505194526 | 77 | 214 | 0.0 | 12.0 | 0.00 | 0.00 | 0.00 | 51 | 1006.0 |
| 20260505194025 | 77 | 181 | 0.0 | 12.0 | 0.00 | 0.00 | 0.00 | 50 | 1006.2 |
| 20260505193525 | 77 | 154 | 1.0 | 10.0 | 0.00 | 0.00 | 0.00 | 50 | 1006.3 |
| 20260505193024 | 77 | 212 | 0.0 | 10.0 | 0.00 | 0.00 | 0.00 | 50 | 1006.2 |